This demonstration page uses our WeatherBlox Daily Observations layout. Learn more.

Left ArrowRight Arrow

31.84235, -102.49876

Hourly Observations for May 27, 2021

Temp ( °F °C ) Dew Point ( °F °C ) Humidity (%) Winds ( mph kmh ) Pressure ( in mb ) Visibility ( mi km ) Precip ( " mm )
12:24 am 00:24 Partly Cloudy with Nearby Thunderstorms 78 25.6 65 18.3 64 64 S 23 37 29.86 1011 10 16 0.00 0.00
12:39 am 00:39 Mostly Cloudy 77 25 65 18.3 66 66 SSW 13 20 29.89 1012 10 16 0.00 0.00
12:53 am 00:53 Mostly Cloudy with Light Rain 77 25 66 18.9 69 69 SSE 17 28 29.88 1012 10 16 0.00 0.00
1:00 am 01:00 Partly Cloudy 76 24.4 66 18.9 72 72 SSE 14 22 29.85 1011 10 16 0.00 0.00
1:53 am 01:53 Clear 76 24.4 66 18.9 72 72 SSE 18 30 29.87 1011 10 16 0.00 0.00
2:53 am 02:53 Clear 75 23.9 65 18.3 71 71 S 13 20 29.85 1011 10 16 0.00 0.00
3:53 am 03:53 Clear 74 23.3 65 18.3 74 74 S 14 22 29.84 1011 10 16 0.00 0.00
4:53 am 04:53 Clear 73 22.8 65 18.3 76 76 S 17 28 29.83 1010 10 16 0.00 0.00
5:53 am 05:53 Mostly Clear 73 22.8 66 18.9 79 79 S 18 30 29.82 1010 10 16 0.00 0.00
6:53 am 06:53 Mostly Sunny 72 22.2 66 18.9 82 82 S 12 19 29.83 1010 8 13 0.00 0.00
7:53 am 07:53 Sunny 73 22.8 66 18.9 79 79 SSW 17 28 29.85 1011 9 14 0.00 0.00
8:53 am 08:53 Partly Cloudy 76 24.4 66 18.9 72 72 SSW 22 35 29.86 1011 10 16 0.00 0.00
9:53 am 09:53 Mostly Sunny 79 26.1 66 18.9 65 65 S 17 28 29.87 1012 10 16 0.00 0.00
10:53 am 10:53 Sunny 82 27.8 66 18.9 58 58 S 13 20 29.88 1012 10 16 0.00 0.00
11:53 am 11:53 Sunny 85 29.4 66 18.9 53 53 SSW 10 17 29.86 1011 10 16 0.00 0.00
12:53 pm 12:53 Sunny 87 30.6 65 18.3 48 48 S 7 11 29.85 1011 10 16 0.00 0.00
1:53 pm 13:53 Sunny 88 31.1 63 17.2 43 43 SSE 5 7 29.83 1010 10 16 0.00 0.00
2:53 pm 14:53 Sunny 92 33.3 60 15.6 34 34 undefined N/A 29.80 1009 10 16 0.00 0.00
3:53 pm 15:53 Sunny 93 33.9 51 10.6 24 24 Calm 29.79 1009 10 16 0.00 0.00
4:11 pm 16:11 Sunny with Thunderstorms 95 35 53 11.7 24 24 VRB 3 6 29.66 1004 10 16 0.00 0.00
4:53 pm 16:53 Mostly Cloudy with Thunderstorms 86 30 53 11.7 32 32 SE 24 39 29.80 1009 10 16 0.00 0.00
5:15 pm 17:15 Partly Cloudy with Nearby Thunderstorms 85 29.4 55 12.8 36 36 SE 17 28 29.72 1006 10 16 0.00 0.00
5:30 pm 17:30 Sunny 88 31.1 54 12.2 31 31 SE 13 20 29.69 1005 10 16 0.00 0.00
5:53 pm 17:53 Sunny 89 31.7 56 13.3 33 33 SSE 9 15 29.76 1008 10 16 0.00 0.00
6:53 pm 18:53 Sunny 88 31.1 61 16.1 40 40 ESE 10 17 29.77 1008 10 16 0.00 0.00
7:53 pm 19:53 Sunny 86 30 61 16.1 43 43 SE 9 15 29.78 1008 10 16 0.00 0.00
8:53 pm 20:53 Clear 82 27.8 64 17.8 55 55 SE 18 30 29.78 1009 10 16 0.00 0.00
9:53 pm 21:53 Clear 80 26.7 64 17.8 58 58 SE 16 26 29.81 1010 10 16 0.00 0.00
10:53 pm 22:53 Clear 78 25.6 63 17.2 60 60 S 10 17 29.85 1011 10 16 0.00 0.00
11:53 pm 23:53 Clear 77 25 62 16.7 60 60 S 13 20 29.85 1011 10 16 0.00 0.00

Powered by AerisWeather